User: anonymous   Login
Location: Theydon Bois
(51.6750°N, 0.1050°E)
Time: 01:21:55
(UTC+01:00)
Language:

Cosmos 1000 Rocket - Orbit

View from above orbital plane
View from above orbital plane
View from above satellite
View from above satellite

Ground track
Ground track

The orbit data is extracted from the following two-line orbital elements,

1 10777U 78034B   18199.41882672 +.00000033 +00000-0 +17345-4 0  9990
2 10777 082.9441 295.8594 0026551 165.3541 249.4147 13.77398917024910
Epoch (UTC): 18 July 2018 10:03:06
Eccentricity: 0.0026551
inclination: 82.9441°
perigee height: 953 km
apogee height: 992 km
right ascension of ascending node: 295.8594°
argument of perigee: 165.3541°
revolutions per day: 13.77398917
mean anomaly at epoch: 249.4147°
orbit number at epoch: 2491

The dashed part of the orbit path shows where the satellite is in the earth's shadow,  

DLR